Wind_Speed
18 18 18 16 15 14 12 12 11 8 7 8 6 3 3 4 4 1 3 5 5 5 4 4 5 5 6 6 6 6 5 5 4 4 4 3 3 3 2 2 2 1
19 19 19 18 17 15 13 13 11 9 10 10 7 6 6 5 4 3 3 4 4 5 5 3 4 4 5 5 4 5 5 4 4 4 3 3 2 2 1 1 1 0
21 20 20 19 18 17 15 13 12 11 10 10 8 8 9 7 4 3 1 2 3 4 4 3 3 3 4 5 3 3 4 3 3 3 3 3 2 2 1 1 1 1
22 22 21 20 19 18 17 14 15 14 11 10 10 10 10 8 5 4 2 1 1 2 2 2 3 2 2 3 2 2 2 2 2 2 2 2 2 1 1 1 2 2
24 23 22 21 19 18 17 15 16 15 12 12 13 11 10 9 6 5 4 3 1 0 1 1 2 2 3 2 0 1 1 1 1 1 1 1 1 1 1 2 3 3
25 24 23 22 20 18 18 17 16 15 13 13 13 12 11 10 7 6 5 4 3 2 1 1 1 2 2 2 2 2 1 2 2 2 3 3 2 3 3 3 4 4
25 26 25 23 21 20 19 18 17 16 15 14 14 13 12 11 9 7 6 5 4 3 2 1 1 2 2 2 3 4 4 4 3 4 5 4 4 4 4 5 5 6
25 26 26 24 22 21 20 19 19 18 16 16 16 15 13 13 11 8 7 6 5 5 3 2 2 2 2 3 3 4 5 5 5 5 6 6 7 6 6 7 7 6
26 26 26 25 24 23 22 21 21 19 17 17 17 15 14 14 12 11 9 8 7 7 6 5 4 4 3 4 4 5 5 6 6 6 6 7 8 8 8 9 9 7
27 27 27 27 25 24 23 23 22 20 19 18 17 17 16 15 14 13 12 11 9 9 8 7 7 7 6 6 6 7 7 7 7 7 7 8 9 10 10 10 11 11
29 27 27 28 26 25 25 24 23 22 20 19 18 18 17 17 16 15 15 15 13 10 10 10 9 8 8 8 8 9 10 10 10 10 9 9 9 10 10 11 12 14
30 29 28 28 27 26 26 25 25 24 22 20 19 18 18 17 17 16 16 17 16 14 13 12 11 10 10 9 9 10 11 11 12 12 12 12 11 11 11 11 13 15
31 31 30 28 28 28 27 26 25 24 23 21 20 19 19 19 19 18 17 17 18 17 16 15 14 13 12 11 11 11 12 12 13 14 14 14 14 13 13 13 13 15
31 31 30 29 28 28 28 27 26 24 23 22 21 20 20 20 19 20 19 18 18 18 18 18 17 17 15 14 14 14 14 14 14 15 16 16 16 16 15 15 15 15
30 31 30 30 29 29 29 28 27 25 23 23 23 22 21 20 20 20 20 20 19 19 19 20 21 20 18 15 15 15 15 16 16 17 18 18 18 18 17 16 16 16
29 30 30 30 30 30 29 29 28 27 25 24 24 23 23 22 22 21 21 22 21 20 20 21 22 23 20 17 15 15 16 18 19 19 20 20 20 20 20 19 18 18
28 29 29 30 30 30 30 29 28 28 27 26 25 24 24 24 23 23 23 24 23 22 22 22 23 24 23 19 16 15 17 19 20 21 22 22 23 22 22 21 20 20
28 28 29 29 29 30 30 30 29 28 28 27 27 26 25 25 25 25 25 25 25 24 24 25 25 25 24 21 18 17 18 19 20 22 23 24 25 24 24 23 22 22
28 28 28 29 29 29 29 29 29 29 28 28 28 27 26 26 26 26 26 26 26 25 26 26 26 26 25 23 20 19 19 20 21 22 24 26 27 27 26 25 24 23
28 28 29 29 29 29 29 29 29 29 29 29 28 27 26 26 26 26 26 26 26 26 27 27 27 28 27 25 22 21 21 21 23 24 25 27 29 29 29 27 25 24
29 29 30 29 29 29 29 29 29 29 29 28 28 28 27 27 27 27 27 27 28 28 28 28 29 29 28 26 23 22 22 23 24 25 27 28 30 31 31 29 26 25
29 30 30 30 30 30 30 30 30 30 29 28 28 28 28 27 27 28 28 27 28 29 29 29 29 29 28 26 25 24 23 23 25 26 28 30 31 32 33 31 28 26
29 30 30 30 30 30 31 31 30 30 30 29 29 28 28 28 28 29 29 28 28 30 30 30 30 29 28 27 26 25 24 25 25 27 29 31 32 33 34 32 29 27
27 29 30 31 31 31 31 31 31 30 30 29 30 29 29 29 29 30 30 29 29 30 30 30 31 30 28 27 26 25 26 28 28 28 30 31 31 32 33 32 29 28
27 29 30 31 31 31 31 31 30 30 30 30 30 30 30 29 29 29 30 31 31 31 29 29 31 29 27 28 29 28 28 29 28 29 29 30 30 31 32 31 28 27
29 30 30 30 31 31 31 31 31 30 30 31 30 30 29 29 29 30 31 31 32 31 29 29 30 30 30 31 31 31 29 27 26 27 28 29 29 30 31 29 26 25
Wind_Direction
198 198 199 201 199 198 203 202 206 211 199 206 219 205 198 207 213 188 95 85 81 90 104 126 142 146 142 144 149 147 142 146 146 144 146 147 145 140 132 124 118 134
199 201 201 203 202 201 206 207 210 215 208 210 208 193 209 223 210 188 119 98 91 86 83 103 132 148 150 142 140 143 139 143 145 141 147 148 142 142 136 130 131 229
201 204 204 206 209 205 204 207 208 214 218 216 207 196 210 226 217 201 154 105 84 76 73 79 99 137 152 134 131 149 145 147 151 150 156 151 148 158 164 181 227 262
202 206 207 208 215 212 206 210 211 214 218 219 223 215 212 221 217 210 208 156 75 68 69 50 65 79 101 111 140 178 153 159 162 157 168 161 169 185 177 259 275 285
203 205 206 207 215 214 207 213 218 217 216 219 232 229 214 217 218 211 213 199 203 359 37 3 28 44 52 71 131 223 176 206 190 208 257 235 232 268 298 294 296 306
205 204 206 207 210 213 212 216 217 217 219 222 233 233 220 220 219 212 217 209 214 255 284 316 350 8 19 22 357 344 312 277 265 261 271 273 281 293 299 299 302 304
205 204 205 205 207 212 214 216 215 216 223 228 235 236 225 221 217 212 220 226 234 250 269 308 344 343 338 351 353 348 338 314 296 286 282 281 284 289 294 296 296 299
207 206 205 204 208 212 213 214 216 217 219 225 235 238 229 224 222 218 221 230 248 259 258 276 311 338 330 330 335 337 338 332 320 307 293 283 283 288 292 286 281 284
207 207 206 206 208 211 213 215 217 219 218 222 233 236 232 230 227 227 231 233 244 258 261 270 289 306 315 322 327 327 329 327 323 316 303 289 284 285 286 281 278 276
207 208 208 208 208 210 213 216 217 219 220 224 232 233 232 232 228 228 237 241 240 248 261 270 277 289 301 307 309 312 316 315 311 309 304 293 285 282 281 277 279 283
205 207 209 209 210 210 212 215 216 219 220 224 231 233 230 232 232 226 230 240 245 245 251 264 272 279 291 298 296 296 300 303 304 306 303 297 291 283 277 270 268 275
204 206 208 209 210 211 212 215 217 219 220 223 227 230 230 232 237 233 227 233 244 248 248 254 265 274 283 294 297 293 291 292 294 298 299 296 294 290 281 270 261 263
205 206 207 209 210 211 212 216 219 220 221 222 225 229 229 229 234 238 234 230 235 246 252 249 253 265 277 286 291 292 290 289 288 290 291 290 290 290 287 281 272 267
207 208 208 209 210 211 213 216 219 221 222 223 224 228 231 230 232 237 238 235 231 236 246 247 246 254 269 280 283 284 286 288 288 287 285 284 283 282 281 281 280 277
209 210 210 211 211 212 215 217 218 220 223 225 226 228 231 232 233 236 239 241 237 233 236 241 244 250 262 275 280 282 283 285 287 286 283 282 279 278 278 277 277 278
211 212 212 213 213 213 216 219 220 221 222 225 227 230 233 232 232 234 237 240 241 239 235 235 241 250 260 271 279 283 281 281 283 284 283 281 279 278 278 277 278 279
212 214 214 215 216 216 217 220 222 223 224 226 227 229 233 235 235 235 236 238 239 239 239 238 241 250 260 270 279 282 279 278 280 281 280 280 278 278 278 278 278 279
212 215 216 217 217 219 220 221 222 225 227 228 228 229 231 235 237 239 240 240 239 238 240 243 246 252 262 272 280 282 280 277 277 278 278 277 276 276 276 276 277 278
213 215 217 218 219 220 222 223 223 225 228 230 231 232 233 235 239 243 243 243 242 240 240 243 248 254 264 275 282 284 282 278 275 276 275 276 276 275 272 273 275 276
214 215 217 220 221 221 221 223 225 227 228 231 233 234 237 238 240 243 244 243 244 244 243 245 249 254 264 276 283 284 282 279 276 275 273 273 273 272 270 271 273 274
215 216 218 219 221 222 222 223 225 227 228 230 233 234 236 239 241 244 245 245 247 248 248 250 253 257 264 275 283 284 283 280 276 274 273 272 270 268 267 269 272 273
216 218 219 220 221 222 223 224 225 226 228 230 233 236 237 238 241 244 247 249 251 252 253 256 259 261 267 276 283 284 282 278 275 274 273 272 270 267 264 266 270 271
219 220 221 221 222 222 223 226 226 226 228 229 232 235 238 238 239 242 246 249 252 254 257 260 262 266 271 280 285 284 280 275 272 272 273 274 272 268 264 266 268 268
223 224 224 224 224 223 224 226 227 228 229 230 231 233 236 238 240 243 245 247 249 254 258 261 263 268 275 283 285 282 279 277 274 272 273 274 273 268 265 264 266 268
226 226 227 227 227 226 226 226 227 229 230 230 232 234 237 239 241 243 246 247 249 253 257 260 263 269 277 283 283 281 280 278 274 272 272 273 272 269 266 264 265 266
229 228 228 229 230 229 228 228 228 229 231 232 234 236 238 239 240 243 246 248 251 253 256 260 265 271 277 280 281 282 284 281 276 274 273 273 272 268 265 265 265 265
Height
1535 1536 1537 1538 1539 1541 1542 1542 1543 1543 1543 1543 1543 1544 1543 1544 1543 1542 1542 1542 1541 1541 1541 1541 1541 1540 1540 1540 1540 1540 1540 1540 1540 1540 1540 1540 1540 1539 1539 1539 1539 1539
1533 1535 1536 1537 1538 1540 1541 1541 1542 1542 1543 1543 1543 1543 1543 1543 1543 1542 1542 1542 1541 1541 1541 1541 1541 1540 1540 1540 1540 1540 1540 1540 1540 1540 1540 1539 1539 1539 1539 1539 1539 1539
1532 1533 1535 1536 1537 1538 1539 1540 1541 1542 1542 1542 1542 1543 1543 1543 1542 1542 1542 1541 1541 1541 1541 1541 1540 1540 1540 1540 1540 1540 1540 1540 1540 1539 1539 1539 1539 1539 1539 1539 1538 1538
1530 1532 1533 1535 1535 1536 1538 1539 1540 1540 1541 1541 1541 1542 1542 1542 1542 1542 1541 1541 1541 1541 1541 1540 1540 1540 1539 1539 1539 1539 1539 1539 1539 1539 1539 1539 1539 1539 1538 1538 1538 1538
1528 1530 1531 1533 1534 1535 1536 1537 1538 1539 1540 1540 1541 1541 1541 1541 1541 1541 1541 1541 1540 1540 1540 1540 1540 1539 1539 1538 1538 1538 1538 1538 1538 1538 1538 1538 1538 1538 1538 1537 1537 1537
1526 1528 1529 1531 1533 1534 1535 1536 1537 1538 1538 1539 1539 1540 1540 1540 1540 1540 1540 1540 1540 1540 1540 1539 1539 1539 1538 1538 1538 1537 1537 1537 1537 1537 1537 1537 1537 1537 1536 1536 1536 1536
1524 1526 1527 1529 1531 1532 1533 1534 1535 1536 1537 1538 1538 1538 1539 1539 1539 1539 1539 1539 1539 1539 1539 1539 1538 1538 1538 1537 1537 1537 1537 1537 1536 1536 1536 1536 1536 1536 1535 1535 1535 1534
1522 1523 1525 1527 1529 1530 1531 1532 1533 1534 1536 1536 1536 1537 1538 1538 1538 1538 1538 1538 1538 1538 1538 1538 1537 1537 1537 1537 1537 1537 1536 1536 1536 1535 1535 1535 1534 1534 1534 1534 1534 1533
1520 1521 1523 1525 1526 1528 1529 1530 1531 1532 1534 1535 1535 1535 1536 1536 1537 1537 1537 1537 1537 1537 1537 1536 1536 1536 1536 1536 1536 1536 1535 1535 1535 1535 1534 1534 1533 1533 1533 1532 1532 1532
1518 1519 1520 1522 1524 1525 1527 1528 1529 1531 1532 1533 1533 1534 1534 1535 1535 1536 1536 1536 1536 1536 1535 1535 1535 1535 1535 1535 1535 1535 1534 1534 1534 1534 1533 1533 1532 1532 1531 1531 1530 1530
1515 1516 1518 1519 1521 1523 1524 1526 1527 1528 1530 1531 1532 1532 1533 1533 1534 1534 1535 1534 1534 1534 1534 1534 1534 1534 1533 1533 1533 1533 1533 1533 1532 1532 1532 1531 1531 1530 1530 1529 1528 1528
1512 1514 1515 1517 1519 1520 1522 1523 1525 1526 1528 1529 1530 1531 1531 1532 1532 1532 1533 1533 1533 1533 1533 1532 1532 1532 1532 1532 1532 1532 1531 1531 1531 1530 1530 1529 1529 1529 1528 1528 1528 1527
1509 1511 1512 1514 1516 1518 1520 1521 1522 1523 1525 1526 1528 1529 1529 1530 1530 1531 1531 1532 1532 1532 1531 1531 1531 1530 1530 1530 1530 1530 1530 1529 1529 1528 1528 1527 1527 1527 1526 1526 1526 1526
1506 1508 1510 1512 1514 1515 1517 1518 1519 1521 1522 1524 1525 1526 1527 1528 1529 1529 1529 1530 1530 1530 1530 1530 1529 1529 1529 1528 1528 1528 1527 1527 1527 1526 1526 1525 1525 1524 1524 1524 1523 1523
1504 1507 1508 1510 1511 1513 1514 1516 1517 1518 1520 1521 1522 1523 1525 1526 1527 1527 1527 1527 1528 1528 1528 1528 1528 1527 1526 1526 1526 1526 1525 1525 1524 1524 1523 1523 1523 1522 1522 1522 1521 1521
1503 1505 1506 1507 1509 1510 1511 1513 1514 1516 1517 1518 1519 1520 1522 1523 1524 1525 1525 1525 1525 1526 1526 1526 1525 1525 1524 1524 1524 1524 1523 1523 1522 1521 1521 1520 1520 1520 1519 1519 1519 1519
1501 1503 1504 1505 1506 1508 1509 1510 1512 1513 1514 1515 1516 1517 1518 1519 1521 1522 1522 1523 1523 1523 1524 1523 1523 1522 1522 1522 1523 1522 1521 1520 1519 1519 1518 1517 1517 1517 1516 1516 1516 1516
1500 1501 1502 1503 1504 1505 1507 1508 1509 1510 1511 1512 1513 1514 1515 1516 1517 1518 1519 1519 1520 1521 1521 1520 1520 1519 1519 1520 1520 1520 1519 1518 1517 1516 1515 1514 1514 1513 1513 1514 1513 1514
1497 1499 1500 1501 1502 1503 1504 1505 1506 1507 1508 1509 1510 1511 1512 1513 1514 1515 1516 1516 1517 1517 1517 1517 1517 1517 1516 1517 1517 1517 1517 1516 1515 1514 1512 1512 1511 1510 1510 1511 1511 1511
1494 1496 1497 1499 1499 1500 1502 1502 1503 1504 1505 1506 1507 1508 1509 1510 1511 1512 1513 1513 1514 1514 1514 1514 1514 1514 1513 1514 1514 1514 1514 1513 1512 1511 1510 1509 1508 1507 1507 1507 1508 1508
1491 1492 1494 1496 1497 1498 1499 1499 1500 1501 1502 1503 1504 1505 1506 1507 1508 1509 1509 1510 1510 1511 1511 1511 1511 1511 1510 1511 1511 1511 1511 1510 1509 1508 1507 1506 1505 1504 1504 1504 1505 1506
1488 1490 1491 1493 1494 1495 1495 1496 1497 1497 1499 1500 1500 1501 1502 1503 1504 1505 1505 1506 1507 1507 1507 1507 1507 1507 1507 1507 1507 1507 1507 1507 1506 1505 1504 1503 1502 1501 1501 1501 1502 1503
1487 1488 1489 1490 1491 1492 1492 1493 1493 1494 1495 1496 1497 1498 1498 1499 1501 1501 1502 1503 1503 1503 1503 1503 1503 1503 1503 1503 1504 1504 1504 1503 1503 1502 1500 1499 1499 1498 1498 1498 1499 1500
1485 1486 1487 1487 1488 1488 1489 1490 1490 1491 1492 1493 1493 1494 1495 1496 1497 1497 1498 1499 1499 1499 1499 1499 1499 1499 1499 1500 1500 1501 1500 1499 1499 1498 1497 1496 1495 1495 1495 1495 1496 1497
1482 1483 1484 1485 1485 1486 1486 1487 1487 1488 1488 1489 1490 1490 1491 1492 1493 1494 1494 1494 1494 1495 1495 1495 1495 1495 1496 1496 1496 1496 1496 1495 1495 1494 1493 1492 1491 1491 1491 1492 1493 1494
1479 1480 1481 1481 1482 1483 1484 1484 1485 1485 1485 1485 1486 1487 1487 1488 1489 1489 1490 1490 1491 1491 1491 1491 1491 1491 1492 1491 1491 1491 1491 1491 1491 1490 1489 1489 1488 1487 1488 1489 1490 1491